QPF
0.02 0.02 0.02 0.03 0.02 0.02 0.02 0.02 0.02 0.02 0.01 0.01 0.01 0.00 0.00 0.00 0.00 0.00 0.00 0.00 0.00 0.00 0.00 0.00 0.00 0.00 0.00 0.01 0.01 0.01 0.02 0.03 0.05 0.03 0.02 0.01 0.01 0.01 0.02 0.03 0.02 0.02 0.02 0.02
0.02 0.02 0.02 0.03 0.02 0.02 0.01 0.01 0.01 0.01 0.02 0.02 0.01 0.01 0.00 0.00 0.00 0.00 0.00 0.00 0.00 0.00 0.00 0.00 0.00 0.00 0.00 0.00 0.01 0.02 0.02 0.02 0.04 0.04 0.02 0.02 0.01 0.01 0.01 0.02 0.02 0.02 0.02 0.01
0.04 0.03 0.03 0.04 0.04 0.03 0.03 0.03 0.02 0.02 0.02 0.02 0.02 0.01 0.01 0.00 0.00 0.00 0.00 0.00 0.00 0.00 0.00 0.00 0.00 0.00 0.00 0.00 0.01 0.01 0.02 0.02 0.03 0.04 0.03 0.02 0.02 0.02 0.02 0.01 0.01 0.01 0.02 0.01
0.05 0.05 0.06 0.04 0.03 0.03 0.04 0.03 0.03 0.02 0.01 0.01 0.02 0.02 0.01 0.01 0.00 0.00 0.00 0.00 0.00 0.00 0.00 0.00 0.00 0.00 0.00 0.00 0.00 0.01 0.01 0.02 0.03 0.03 0.03 0.03 0.03 0.02 0.02 0.01 0.01 0.01 0.01 0.01
0.05 0.05 0.04 0.03 0.02 0.03 0.04 0.03 0.03 0.02 0.01 0.00 0.00 0.01 0.01 0.01 0.00 0.00 0.00 0.00 0.00 0.00 0.00 0.00 0.00 0.00 0.00 0.00 0.01 0.00 0.01 0.01 0.02 0.03 0.02 0.02 0.02 0.02 0.02 0.02 0.01 0.01 0.01 0.01
0.05 0.05 0.04 0.04 0.02 0.03 0.03 0.03 0.02 0.02 0.02 0.01 0.00 0.01 0.01 0.01 0.01 0.00 0.00 0.00 0.00 0.00 0.00 0.00 0.00 0.00 0.00 0.00 0.01 0.01 0.01 0.01 0.02 0.02 0.02 0.01 0.01 0.01 0.01 0.02 0.02 0.01 0.01 0.01
0.05 0.05 0.04 0.04 0.03 0.02 0.04 0.05 0.03 0.02 0.02 0.01 0.02 0.02 0.01 0.01 0.01 0.01 0.01 0.01 0.01 0.01 0.01 0.01 0.01 0.00 0.00 0.01 0.01 0.01 0.01 0.01 0.01 0.02 0.02 0.01 0.01 0.01 0.01 0.01 0.01 0.02 0.02 0.01
0.05 0.05 0.05 0.04 0.03 0.04 0.06 0.04 0.03 0.03 0.03 0.02 0.02 0.02 0.02 0.02 0.01 0.01 0.01 0.01 0.01 0.02 0.02 0.01 0.01 0.01 0.01 0.01 0.01 0.02 0.02 0.02 0.01 0.01 0.01 0.01 0.01 0.01 0.01 0.01 0.01 0.01 0.01 0.01
0.06 0.07 0.07 0.06 0.06 0.06 0.04 0.04 0.04 0.04 0.04 0.04 0.04 0.04 0.04 0.04 0.04 0.04 0.03 0.03 0.03 0.03 0.04 0.04 0.03 0.03 0.02 0.02 0.02 0.02 0.03 0.03 0.03 0.02 0.02 0.02 0.02 0.02 0.01 0.01 0.01 0.01 0.01 0.01
0.05 0.05 0.05 0.04 0.04 0.04 0.04 0.05 0.05 0.04 0.04 0.04 0.04 0.05 0.05 0.05 0.05 0.05 0.05 0.05 0.05 0.04 0.04 0.05 0.06 0.06 0.05 0.04 0.03 0.03 0.03 0.03 0.04 0.03 0.03 0.02 0.02 0.03 0.02 0.02 0.02 0.01 0.01 0.01
0.03 0.04 0.03 0.03 0.04 0.04 0.04 0.04 0.04 0.04 0.04 0.04 0.04 0.04 0.04 0.05 0.05 0.05 0.05 0.05 0.05 0.05 0.05 0.05 0.05 0.05 0.05 0.04 0.03 0.03 0.03 0.03 0.02 0.02 0.02 0.02 0.02 0.02 0.02 0.02 0.02 0.02 0.02 0.01
0.05 0.04 0.04 0.05 0.05 0.04 0.04 0.04 0.04 0.04 0.04 0.04 0.04 0.04 0.04 0.05 0.05 0.05 0.05 0.04 0.04 0.04 0.04 0.04 0.04 0.04 0.03 0.03 0.03 0.02 0.02 0.02 0.02 0.02 0.01 0.01 0.01 0.01 0.01 0.01 0.01 0.01 0.01 0.01
0.05 0.04 0.03 0.03 0.03 0.03 0.03 0.04 0.04 0.03 0.03 0.04 0.03 0.03 0.03 0.04 0.03 0.03 0.03 0.03 0.03 0.03 0.03 0.03 0.03 0.02 0.02 0.02 0.01 0.01 0.02 0.01 0.01 0.02 0.02 0.01 0.01 0.01 0.01 0.01 0.00 0.00 0.00 0.01
0.03 0.02 0.02 0.03 0.03 0.03 0.02 0.02 0.02 0.02 0.02 0.03 0.03 0.03 0.02 0.02 0.02 0.02 0.02 0.02 0.02 0.02 0.02 0.02 0.01 0.01 0.01 0.01 0.01 0.01 0.01 0.01 0.01 0.01 0.01 0.01 0.01 0.01 0.01 0.01 0.01 0.01 0.00 0.00
0.02 0.02 0.02 0.02 0.02 0.02 0.02 0.01 0.01 0.01 0.02 0.02 0.02 0.02 0.02 0.02 0.02 0.02 0.02 0.01 0.01 0.01 0.02 0.01 0.01 0.01 0.01 0.01 0.01 0.01 0.01 0.01 0.01 0.01 0.01 0.01 0.01 0.01 0.01 0.00 0.00 0.00 0.00 0.00
0.02 0.02 0.02 0.01 0.01 0.01 0.01 0.01 0.01 0.01 0.01 0.01 0.01 0.01 0.02 0.02 0.02 0.01 0.01 0.01 0.01 0.02 0.02 0.02 0.02 0.02 0.01 0.01 0.01 0.01 0.01 0.01 0.01 0.01 0.01 0.01 0.00 0.00 0.00 0.00 0.00 0.00 0.00 0.00
0.02 0.02 0.02 0.02 0.01 0.01 0.01 0.01 0.02 0.02 0.01 0.01 0.01 0.01 0.01 0.01 0.01 0.01 0.01 0.01 0.01 0.02 0.02 0.02 0.02 0.02 0.02 0.01 0.01 0.01 0.01 0.01 0.01 0.01 0.01 0.01 0.01 0.01 0.01 0.01 0.00 0.00 0.00 0.00
0.02 0.02 0.03 0.02 0.02 0.02 0.02 0.02 0.01 0.01 0.01 0.01 0.01 0.01 0.01 0.01 0.01 0.02 0.02 0.02 0.02 0.02 0.03 0.03 0.02 0.02 0.02 0.02 0.02 0.01 0.01 0.01 0.01 0.01 0.01 0.01 0.01 0.01 0.01 0.01 0.00 0.01 0.01 0.01
0.03 0.03 0.03 0.03 0.02 0.02 0.01 0.01 0.01 0.01 0.01 0.01 0.01 0.01 0.01 0.01 0.01 0.01 0.01 0.01 0.01 0.02 0.02 0.01 0.02 0.02 0.02 0.02 0.02 0.02 0.02 0.01 0.01 0.01 0.01 0.01 0.01 0.01 0.01 0.01 0.01 0.01 0.01 0.01
0.03 0.03 0.02 0.02 0.01 0.01 0.01 0.00 0.01 0.01 0.01 0.01 0.01 0.00 0.00 0.00 0.00 0.00 0.01 0.01 0.01 0.01 0.01 0.01 0.01 0.01 0.02 0.02 0.02 0.02 0.02 0.02 0.02 0.01 0.01 0.01 0.01 0.01 0.01 0.01 0.01 0.01 0.01 0.01
0.02 0.02 0.02 0.01 0.01 0.00 0.00 0.00 0.00 0.00 0.00 0.00 0.00 0.00 0.00 0.00 0.00 0.00 0.00 0.00 0.00 0.01 0.01 0.01 0.01 0.01 0.01 0.01 0.01 0.02 0.02 0.02 0.02 0.02 0.02 0.01 0.01 0.01 0.01 0.01 0.01 0.01 0.01 0.01
0.01 0.01 0.01 0.01 0.00 0.00 0.00 0.00 0.00 0.00 0.00 0.00 0.00 0.00 0.00 0.00 0.00 0.00 0.00 0.00 0.00 0.01 0.01 0.01 0.01 0.01 0.01 0.01 0.01 0.01 0.01 0.01 0.02 0.02 0.02 0.01 0.01 0.01 0.01 0.01 0.01 0.01 0.01 0.01
0.01 0.01 0.01 0.00 0.00 0.00 0.00 0.00 0.00 0.00 0.00 0.00 0.00 0.00 0.00 0.00 0.00 0.01 0.00 0.00 0.00 0.00 0.00 0.00 0.01 0.01 0.01 0.01 0.01 0.01 0.01 0.01 0.01 0.01 0.01 0.01 0.01 0.01 0.01 0.00 0.00 0.00 0.00 0.01
0.01 0.01 0.01 0.01 0.00 0.00 0.00 0.00 0.00 0.00 0.00 0.00 0.00 0.00 0.01 0.01 0.01 0.01 0.01 0.01 0.00 0.00 0.00 0.00 0.00 0.01 0.00 0.00 0.00 0.00 0.00 0.00 0.00 0.00 0.00 0.00 0.00 0.00 0.01 0.00 0.00 0.00 0.00 0.01
0.00 0.00 0.00 0.00 0.00 0.00 0.00 0.00 0.00 0.00 0.00 0.00 0.00 0.00 0.00 0.01 0.01 0.01 0.01 0.01 0.01 0.01 0.00 0.00 0.00 0.00 0.00 0.00 0.00 0.00 0.00 0.00 0.00 0.01 0.01 0.00 0.00 0.00 0.00 0.00 0.00 0.00 0.00 0.00
0.00 0.00 0.00 0.00 0.00 0.00 0.00 0.00 0.00 0.00 0.00 0.00 0.00 0.00 0.00 0.00 0.01 0.01 0.01 0.01 0.01 0.00 0.00 0.00 0.00 0.00 0.00 0.00 0.00 0.00 0.00 0.00 0.00 0.00 0.00 0.00 0.00 0.00 0.00 0.00 0.00 0.00 0.00 0.01
0.00 0.00 0.00 0.00 0.00 0.00 0.00 0.00 0.00 0.00 0.00 0.00 0.00 0.00 0.00 0.00 0.00 0.01 0.00 0.00 0.00 0.01 0.00 0.00 0.00 0.00 0.00 0.00 0.00 0.00 0.00 0.00 0.00 0.00 0.00 0.00 0.00 0.01 0.01 0.00 0.00 0.01 0.01 0.01
MSLP
1027.11 1026.79 1026.40 1025.93 1025.40 1024.83 1024.22 1023.60 1022.98 1022.36 1021.74 1021.12 1020.49 1019.83 1019.12 1018.35 1017.52 1016.62 1015.67 1014.69 1013.71 1012.77 1011.90 1011.13 1010.48 1009.96 1009.58 1009.33 1009.19 1009.14 1009.16 1009.23 1009.35 1009.50 1009.69 1009.92 1010.19 1010.51 1010.87 1011.27 1011.70 1012.16 1012.64 1013.13
1026.89 1026.67 1026.38 1026.04 1025.63 1025.16 1024.64 1024.09 1023.52 1022.93 1022.35 1021.76 1021.17 1020.56 1019.92 1019.23 1018.47 1017.66 1016.78 1015.86 1014.91 1013.96 1013.05 1012.22 1011.47 1010.84 1010.33 1009.95 1009.68 1009.52 1009.46 1009.47 1009.56 1009.71 1009.92 1010.19 1010.51 1010.87 1011.28 1011.72 1012.17 1012.64 1013.11 1013.58
1026.76 1026.57 1026.35 1026.09 1025.77 1025.38 1024.94 1024.44 1023.91 1023.35 1022.77 1022.20 1021.62 1021.03 1020.43 1019.79 1019.10 1018.35 1017.55 1016.69 1015.79 1014.87 1013.96 1013.08 1012.27 1011.55 1010.94 1010.45 1010.07 1009.81 1009.67 1009.63 1009.69 1009.84 1010.08 1010.39 1010.77 1011.19 1011.66 1012.14 1012.63 1013.12 1013.60 1014.06
1026.79 1026.58 1026.38 1026.16 1025.90 1025.57 1025.18 1024.72 1024.20 1023.64 1023.06 1022.46 1021.87 1021.27 1020.66 1020.04 1019.39 1018.69 1017.94 1017.14 1016.28 1015.40 1014.50 1013.61 1012.77 1011.99 1011.30 1010.72 1010.26 1009.93 1009.73 1009.66 1009.71 1009.88 1010.15 1010.51 1010.95 1011.44 1011.97 1012.51 1013.05 1013.57 1014.07 1014.53
1027.00 1026.74 1026.52 1026.30 1026.06 1025.76 1025.39 1024.95 1024.43 1023.86 1023.24 1022.60 1021.95 1021.31 1020.67 1020.03 1019.37 1018.69 1017.97 1017.21 1016.39 1015.53 1014.65 1013.77 1012.91 1012.09 1011.36 1010.73 1010.23 1009.86 1009.63 1009.55 1009.61 1009.81 1010.12 1010.54 1011.05 1011.61 1012.20 1012.81 1013.40 1013.96 1014.49 1014.97
1027.33 1027.00 1026.73 1026.49 1026.25 1025.96 1025.60 1025.15 1024.61 1024.00 1023.33 1022.63 1021.91 1021.20 1020.49 1019.80 1019.11 1018.42 1017.70 1016.95 1016.15 1015.32 1014.45 1013.58 1012.71 1011.89 1011.14 1010.50 1009.98 1009.60 1009.38 1009.32 1009.41 1009.66 1010.03 1010.52 1011.09 1011.72 1012.37 1013.04 1013.69 1014.30 1014.86 1015.38
1027.69 1027.28 1026.97 1026.70 1026.44 1026.14 1025.77 1025.31 1024.75 1024.09 1023.36 1022.58 1021.77 1020.97 1020.19 1019.42 1018.68 1017.94 1017.20 1016.44 1015.65 1014.82 1013.97 1013.11 1012.26 1011.45 1010.71 1010.08 1009.58 1009.23 1009.04 1009.03 1009.18 1009.48 1009.92 1010.48 1011.12 1011.81 1012.52 1013.24 1013.93 1014.59 1015.19 1015.74
1027.97 1027.52 1027.17 1026.88 1026.60 1026.30 1025.92 1025.43 1024.84 1024.13 1023.33 1022.47 1021.58 1020.68 1019.80 1018.95 1018.14 1017.35 1016.57 1015.79 1014.99 1014.17 1013.33 1012.49 1011.66 1010.88 1010.17 1009.58 1009.12 1008.83 1008.70 1008.76 1008.98 1009.36 1009.87 1010.49 1011.19 1011.93 1012.70 1013.45 1014.18 1014.86 1015.50 1016.09
1028.12 1027.65 1027.29 1026.99 1026.72 1026.40 1026.01 1025.51 1024.88 1024.12 1023.26 1022.32 1021.34 1020.35 1019.39 1018.45 1017.57 1016.72 1015.90 1015.09 1014.28 1013.46 1012.64 1011.82 1011.03 1010.29 1009.64 1009.10 1008.72 1008.50 1008.46 1008.59 1008.90 1009.36 1009.94 1010.63 1011.38 1012.16 1012.95 1013.72 1014.46 1015.16 1015.81 1016.41
1028.10 1027.65 1027.31 1027.03 1026.76 1026.45 1026.05 1025.53 1024.87 1024.07 1023.16 1022.15 1021.09 1020.03 1018.99 1017.98 1017.03 1016.13 1015.27 1014.44 1013.62 1012.81 1012.01 1011.23 1010.48 1009.80 1009.22 1008.76 1008.46 1008.33 1008.37 1008.60 1009.00 1009.53 1010.18 1010.92 1011.70 1012.51 1013.31 1014.08 1014.81 1015.50 1016.14 1016.74
1027.92 1027.53 1027.23 1026.98 1026.74 1026.45 1026.05 1025.52 1024.84 1024.01 1023.05 1021.99 1020.88 1019.75 1018.65 1017.59 1016.59 1015.65 1014.77 1013.93 1013.11 1012.32 1011.55 1010.81 1010.12 1009.51 1008.99 1008.62 1008.41 1008.37 1008.51 1008.82 1009.29 1009.90 1010.61 1011.38 1012.18 1012.99 1013.78 1014.54 1015.24 1015.90 1016.51 1017.08
1027.61 1027.30 1027.07 1026.88 1026.67 1026.40 1026.02 1025.49 1024.79 1023.94 1022.95 1021.86 1020.71 1019.55 1018.41 1017.31 1016.29 1015.33 1014.44 1013.61 1012.81 1012.05 1011.32 1010.63 1010.01 1009.46 1009.03 1008.74 1008.61 1008.66 1008.88 1009.27 1009.80 1010.45 1011.20 1011.99 1012.80 1013.60 1014.36 1015.08 1015.74 1016.36 1016.92 1017.45
1027.23 1027.00 1026.85 1026.72 1026.56 1026.32 1025.96 1025.43 1024.74 1023.88 1022.88 1021.78 1020.62 1019.44 1018.29 1017.19 1016.16 1015.21 1014.34 1013.52 1012.76 1012.04 1011.36 1010.74 1010.18 1009.70 1009.34 1009.13 1009.07 1009.18 1009.47 1009.91 1010.48 1011.16 1011.92 1012.71 1013.50 1014.27 1015.00 1015.67 1016.29 1016.85 1017.36 1017.84
1026.81 1026.67 1026.58 1026.52 1026.41 1026.20 1025.86 1025.36 1024.68 1023.83 1022.84 1021.75 1020.60 1019.44 1018.30 1017.23 1016.23 1015.31 1014.46 1013.69 1012.98 1012.31 1011.69 1011.13 1010.63 1010.23 1009.93 1009.78 1009.77 1009.93 1010.25 1010.71 1011.30 1011.98 1012.73 1013.50 1014.26 1014.99 1015.67 1016.29 1016.85 1017.36 1017.82 1018.25
1026.39 1026.32 1026.29 1026.28 1026.21 1026.04 1025.73 1025.25 1024.60 1023.78 1022.82 1021.77 1020.65 1019.54 1018.45 1017.42 1016.47 1015.61 1014.82 1014.11 1013.45 1012.85 1012.30 1011.80 1011.37 1011.02 1010.77 1010.66 1010.69 1010.87 1011.19 1011.65 1012.22 1012.88 1013.59 1014.31 1015.03 1015.70 1016.33 1016.90 1017.41 1017.88 1018.30 1018.69
1025.99 1025.97 1025.99 1026.01 1025.97 1025.83 1025.54 1025.09 1024.48 1023.70 1022.80 1021.80 1020.76 1019.71 1018.70 1017.74 1016.87 1016.08 1015.37 1014.73 1014.15 1013.62 1013.14 1012.70 1012.33 1012.03 1011.82 1011.74 1011.78 1011.95 1012.26 1012.69 1013.22 1013.83 1014.48 1015.14 1015.79 1016.41 1016.98 1017.50 1017.97 1018.39 1018.78 1019.15
1025.64 1025.64 1025.67 1025.70 1025.68 1025.56 1025.29 1024.88 1024.30 1023.58 1022.75 1021.83 1020.87 1019.92 1019.00 1018.15 1017.37 1016.68 1016.06 1015.51 1015.01 1014.56 1014.15 1013.77 1013.45 1013.20 1013.02 1012.95 1012.98 1013.14 1013.41 1013.79 1014.26 1014.80 1015.38 1015.97 1016.55 1017.10 1017.61 1018.09 1018.51 1018.91 1019.28 1019.62
1025.34 1025.33 1025.36 1025.38 1025.36 1025.23 1024.98 1024.60 1024.06 1023.40 1022.64 1021.81 1020.96 1020.11 1019.31 1018.58 1017.91 1017.33 1016.81 1016.36 1015.95 1015.58 1015.24 1014.93 1014.65 1014.43 1014.28 1014.21 1014.24 1014.37 1014.60 1014.92 1015.32 1015.78 1016.28 1016.79 1017.30 1017.78 1018.24 1018.66 1019.05 1019.42 1019.77 1020.10
1025.09 1025.05 1025.06 1025.06 1025.01 1024.87 1024.62 1024.25 1023.75 1023.15 1022.46 1021.73 1020.98 1020.25 1019.57 1018.96 1018.41 1017.94 1017.54 1017.18 1016.86 1016.57 1016.30 1016.05 1015.83 1015.64 1015.51 1015.44 1015.46 1015.56 1015.74 1016.01 1016.35 1016.74 1017.16 1017.60 1018.04 1018.45 1018.85 1019.23 1019.58 1019.91 1020.24 1020.55
1024.88 1024.82 1024.78 1024.74 1024.65 1024.49 1024.23 1023.86 1023.39 1022.83 1022.21 1021.56 1020.92 1020.30 1019.74 1019.24 1018.81 1018.45 1018.15 1017.89 1017.66 1017.44 1017.24 1017.04 1016.86 1016.71 1016.60 1016.54 1016.56 1016.64 1016.79 1017.02 1017.30 1017.64 1017.99 1018.37 1018.74 1019.10 1019.45 1019.77 1020.08 1020.38 1020.67 1020.96
1024.70 1024.60 1024.53 1024.44 1024.31 1024.10 1023.82 1023.44 1022.98 1022.46 1021.89 1021.32 1020.76 1020.24 1019.78 1019.39 1019.07 1018.81 1018.60 1018.42 1018.26 1018.12 1017.97 1017.83 1017.69 1017.58 1017.49 1017.45 1017.47 1017.54 1017.68 1017.88 1018.13 1018.42 1018.74 1019.06 1019.39 1019.70 1019.99 1020.27 1020.54 1020.79 1021.04 1021.29
1024.51 1024.38 1024.27 1024.14 1023.96 1023.72 1023.40 1023.01 1022.55 1022.05 1021.53 1021.01 1020.52 1020.09 1019.71 1019.41 1019.17 1018.99 1018.86 1018.75 1018.65 1018.56 1018.47 1018.37 1018.28 1018.20 1018.14 1018.12 1018.15 1018.23 1018.37 1018.57 1018.80 1019.07 1019.36 1019.65 1019.94 1020.21 1020.46 1020.70 1020.92 1021.13 1021.33 1021.52
1024.27 1024.13 1023.99 1023.83 1023.61 1023.34 1022.99 1022.58 1022.12 1021.63 1021.14 1020.66 1020.23 1019.86 1019.55 1019.32 1019.14 1019.03 1018.95 1018.89 1018.84 1018.80 1018.74 1018.68 1018.62 1018.57 1018.54 1018.55 1018.60 1018.70 1018.85 1019.05 1019.29 1019.55 1019.83 1020.10 1020.36 1020.61 1020.82 1021.02 1021.19 1021.35 1021.50 1021.63
1023.94 1023.81 1023.66 1023.48 1023.24 1022.94 1022.58 1022.16 1021.70 1021.22 1020.75 1020.31 1019.92 1019.60 1019.34 1019.15 1019.03 1018.95 1018.91 1018.89 1018.88 1018.86 1018.84 1018.81 1018.77 1018.75 1018.75 1018.79 1018.86 1018.98 1019.15 1019.36 1019.61 1019.87 1020.14 1020.40 1020.64 1020.86 1021.05 1021.21 1021.34 1021.45 1021.54 1021.62
1023.48 1023.38 1023.25 1023.07 1022.83 1022.52 1022.16 1021.74 1021.29 1020.84 1020.39 1019.98 1019.63 1019.34 1019.12 1018.97 1018.88 1018.83 1018.82 1018.83 1018.84 1018.84 1018.84 1018.83 1018.82 1018.82 1018.84 1018.90 1018.99 1019.13 1019.31 1019.53 1019.78 1020.04 1020.30 1020.55 1020.78 1020.97 1021.13 1021.25 1021.34 1021.41 1021.45 1021.48
1022.89 1022.83 1022.73 1022.57 1022.35 1022.06 1021.71 1021.32 1020.90 1020.47 1020.06 1019.69 1019.37 1019.11 1018.93 1018.81 1018.74 1018.72 1018.73 1018.75 1018.78 1018.80 1018.82 1018.83 1018.84 1018.85 1018.89 1018.96 1019.07 1019.21 1019.40 1019.62 1019.85 1020.10 1020.34 1020.57 1020.77 1020.93 1021.06 1021.14 1021.20 1021.22 1021.23 1021.22
1022.19 1022.17 1022.10 1021.98 1021.80 1021.55 1021.24 1020.89 1020.51 1020.13 1019.76 1019.43 1019.15 1018.93 1018.78 1018.69 1018.65 1018.65 1018.68 1018.72 1018.77 1018.81 1018.84 1018.87 1018.89 1018.92 1018.97 1019.05 1019.15 1019.29 1019.46 1019.66 1019.87 1020.09 1020.29 1020.48 1020.64 1020.76 1020.85 1020.89 1020.91 1020.90 1020.88 1020.84
Thickness
5415 5428 5434 5438 5446 5452 5454 5458 5460 5474 5482 5496 5498 5501 5503 5506 5508 5512 5514 5517 5519 5520 5520 5522 5524 5526 5528 5528 5528 5529 5528 5527 5525 5525 5523 5522 5521 5520 5519 5518 5517 5515 5514 5512
5405 5419 5424 5428 5436 5443 5451 5456 5461 5468 5474 5485 5487 5487 5489 5492 5497 5501 5503 5505 5507 5508 5509 5511 5513 5515 5516 5517 5518 5518 5518 5517 5516 5515 5513 5512 5511 5510 5509 5507 5506 5505 5503 5502
5394 5407 5412 5415 5429 5435 5440 5448 5455 5460 5469 5472 5473 5476 5479 5482 5486 5489 5491 5493 5495 5496 5497 5499 5501 5503 5504 5506 5507 5507 5507 5506 5506 5505 5504 5502 5501 5499 5498 5497 5495 5494 5492 5491
5382 5389 5392 5418 5428 5432 5434 5440 5444 5452 5458 5461 5465 5465 5466 5470 5472 5475 5478 5479 5481 5483 5485 5486 5489 5491 5493 5495 5496 5496 5496 5495 5495 5494 5493 5491 5489 5488 5487 5485 5484 5482 5481 5479
5372 5376 5390 5408 5413 5415 5421 5427 5434 5440 5445 5447 5450 5451 5452 5455 5459 5461 5464 5467 5469 5471 5473 5474 5476 5479 5480 5482 5483 5484 5484 5484 5483 5482 5481 5479 5478 5476 5475 5473 5471 5470 5469 5467
5362 5370 5377 5394 5401 5408 5413 5414 5423 5427 5432 5435 5440 5439 5439 5442 5445 5446 5449 5453 5455 5458 5460 5461 5463 5466 5467 5468 5469 5471 5472 5472 5472 5471 5469 5468 5466 5464 5463 5461 5459 5458 5456 5454
5354 5360 5369 5381 5389 5401 5399 5404 5410 5415 5421 5426 5430 5433 5428 5428 5430 5432 5435 5438 5441 5444 5446 5448 5450 5453 5453 5454 5455 5457 5458 5459 5459 5458 5457 5456 5454 5452 5450 5448 5446 5445 5443 5441
5349 5347 5358 5372 5378 5380 5385 5391 5397 5403 5409 5411 5413 5415 5415 5417 5418 5419 5421 5424 5427 5429 5430 5433 5436 5439 5440 5439 5441 5443 5444 5445 5444 5444 5443 5442 5440 5438 5436 5435 5433 5430 5429 5428
5343 5347 5353 5359 5364 5369 5374 5379 5386 5390 5395 5398 5399 5401 5403 5403 5404 5406 5408 5410 5412 5414 5415 5417 5420 5423 5424 5425 5427 5428 5429 5430 5429 5429 5428 5428 5427 5425 5423 5422 5420 5418 5416 5415
5336 5340 5344 5349 5354 5360 5365 5370 5375 5379 5383 5387 5387 5388 5389 5389 5390 5392 5393 5395 5398 5400 5401 5402 5405 5407 5409 5411 5413 5414 5414 5414 5414 5414 5413 5413 5413 5412 5411 5409 5408 5406 5405 5403
5325 5331 5336 5341 5345 5349 5354 5359 5363 5366 5369 5372 5373 5374 5375 5375 5376 5378 5380 5381 5384 5386 5387 5388 5390 5392 5394 5396 5398 5399 5400 5400 5399 5399 5399 5399 5398 5398 5398 5398 5397 5396 5395 5393
5318 5323 5326 5328 5332 5339 5343 5346 5350 5353 5355 5357 5359 5360 5361 5362 5363 5364 5367 5369 5370 5372 5373 5374 5376 5378 5379 5381 5383 5384 5385 5385 5385 5385 5385 5385 5385 5386 5386 5386 5386 5386 5385 5384
5309 5315 5317 5320 5324 5328 5332 5336 5338 5340 5342 5344 5345 5347 5348 5349 5350 5351 5353 5355 5356 5358 5359 5360 5362 5363 5365 5366 5368 5370 5370 5370 5371 5372 5372 5373 5373 5374 5373 5374 5374 5374 5374 5373
5303 5307 5309 5311 5313 5317 5322 5325 5327 5329 5330 5331 5332 5333 5335 5336 5337 5338 5340 5342 5344 5345 5346 5347 5348 5350 5351 5353 5355 5356 5357 5358 5359 5359 5360 5360 5360 5361 5362 5362 5362 5361 5361 5362
5295 5298 5299 5301 5304 5307 5310 5313 5315 5316 5317 5319 5320 5322 5323 5324 5324 5325 5327 5329 5331 5332 5333 5335 5336 5337 5339 5341 5342 5343 5344 5345 5346 5346 5347 5348 5348 5349 5349 5350 5350 5349 5349 5349
5286 5289 5291 5292 5294 5296 5298 5300 5302 5304 5305 5307 5308 5309 5311 5312 5312 5313 5315 5317 5318 5319 5320 5322 5323 5324 5326 5328 5329 5330 5331 5333 5334 5334 5335 5335 5336 5337 5337 5337 5337 5337 5337 5337
5278 5280 5282 5283 5284 5286 5287 5289 5290 5292 5294 5296 5297 5298 5300 5301 5301 5302 5303 5305 5306 5307 5309 5310 5312 5314 5315 5316 5318 5318 5319 5320 5322 5322 5323 5323 5324 5324 5325 5325 5325 5325 5324 5325
5268 5271 5272 5273 5275 5277 5278 5280 5281 5282 5283 5285 5287 5288 5289 5289 5290 5291 5292 5294 5295 5296 5297 5299 5301 5303 5304 5305 5306 5307 5307 5308 5309 5310 5310 5311 5312 5312 5312 5312 5312 5312 5313 5313
5259 5261 5263 5265 5267 5268 5269 5270 5271 5273 5274 5276 5277 5278 5278 5279 5280 5280 5281 5283 5284 5285 5287 5289 5292 5292 5293 5294 5295 5296 5296 5297 5297 5298 5299 5300 5300 5300 5300 5300 5300 5300 5300 5301
5250 5252 5254 5256 5258 5258 5259 5261 5262 5263 5264 5266 5268 5268 5269 5269 5269 5270 5271 5272 5273 5274 5277 5279 5280 5281 5282 5284 5285 5285 5285 5286 5286 5287 5287 5288 5288 5288 5288 5288 5289 5289 5289 5290
5241 5243 5245 5246 5247 5249 5250 5252 5253 5254 5256 5257 5258 5259 5259 5260 5260 5261 5262 5263 5265 5266 5267 5269 5270 5271 5272 5273 5275 5275 5275 5275 5276 5276 5276 5276 5277 5277 5277 5277 5278 5278 5279 5279
5231 5233 5235 5237 5238 5239 5241 5242 5244 5245 5247 5248 5248 5249 5250 5250 5251 5251 5252 5253 5255 5257 5258 5259 5260 5262 5263 5264 5264 5264 5265 5265 5265 5266 5266 5266 5267 5267 5268 5268 5268 5269 5269 5269
5223 5224 5226 5228 5229 5230 5231 5233 5234 5236 5237 5238 5239 5239 5240 5241 5242 5242 5244 5244 5246 5247 5248 5249 5251 5252 5254 5253 5254 5254 5254 5255 5255 5255 5256 5256 5257 5257 5258 5259 5259 5260 5260 5260
5215 5217 5218 5220 5221 5222 5223 5225 5226 5227 5227 5228 5230 5230 5231 5232 5233 5234 5234 5236 5237 5238 5239 5240 5242 5243 5243 5243 5243 5243 5244 5244 5245 5245 5246 5247 5247 5248 5249 5250 5250 5251 5251 5252
5208 5209 5211 5212 5214 5215 5216 5217 5217 5218 5218 5220 5221 5222 5222 5223 5224 5225 5225 5226 5228 5229 5230 5231 5232 5233 5233 5232 5233 5233 5234 5235 5236 5237 5237 5238 5239 5239 5240 5241 5242 5243 5243 5244
5201 5203 5204 5205 5206 5207 5208 5208 5209 5210 5211 5212 5213 5213 5214 5215 5215 5216 5216 5218 5219 5221 5221 5222 5223 5223 5223 5224 5224 5225 5226 5227 5227 5228 5229 5230 5231 5232 5233 5234 5235 5236 5237 5238
5196 5196 5197 5198 5199 5200 5200 5200 5201 5201 5202 5202 5204 5205 5206 5206 5207 5208 5208 5209 5210 5211 5213 5214 5215 5215 5216 5216 5217 5218 5219 5220 5221 5222 5223 5224 5225 5226 5227 5228 5229 5230 5232 5233